Location: Bakov nad Jizerou
(50.4784°N, 14.9394°E)
Time: 12:48:31
(UTC+00:00)

SL-8 R/B - Pass Details

Date: 01 November 2021
Orbit: 656 x 667 km, 48.4° (Epoch: 29 November)

Event Time Altitude Azimuth Distance (km) Brightness Sun altitude
Rises 16:46:39 0° 279° (W) 2,985 8.6 -11.7°
Reaches altitude 10° 16:49:04 10° 274° (W) 2,073 7.7 -12.1°
Maximum altitude 16:53:38 46° 201° (SSW) 884 4.6 -12.8°
Drops below altitude 10° 16:58:12 10° 129° (SE) 2,073 5.8 -13.5°
Enters shadow 16:58:13 10° 129° (SE) 2,080 5.8 -13.5°
